Victoria, British Columbia

5:07 AM PDT on July 28, 2017 (GMT -0700)
Victoria International

Weather History for CYYJ - June, 2013

Change the Weather History Date:

Monday, June 24, 2013

  Actual Average Record
Temperature  
Mean Temperature 58 °F -  
Max Temperature 62 °F 70 °F 83 °F (2017)
Min Temperature 55 °F 51 °F 42 °F (2012)
Degree Days  
Heating Degree Days 6    
Growing Degree Days 8 (Base 50)    
Moisture  
Dew Point 52 °F    
Average Humidity 75    
Maximum Humidity 94    
Minimum Humidity 55    
Precipitation  
Precipitation 0.04 in 0.03 in - ()
Sea Level Pressure  
Sea Level Pressure 29.63 in    
Wind  
Wind Speed 5 mph ()    
Max Wind Speed 14 mph    
Max Gust Speed -    
Visibility 11.9 miles    
Events Fog , Rain    
Averages and records for this station are not official NWS values.
T = Trace of Precipitation, MM = Missing Value Source: Averaged Metar Reports

Daily Weather History Graph

Daily Weather History Graph

Search for Another Location

Airport or City:

Trip Planner

Search our weather history database for the weather conditions in past years. The results will help you decide how hot, cold, wet, or windy it might be!

Date:

Astronomy

Jun. 24, 2013 Rise Set
Actual Time 5:12 AM PDT 9:20 PM PDT
Civil Twilight 4:29 AM PDT 10:02 PM PDT
Nautical Twilight 3:29 AM PDT 11:02 PM PDT
Astronomical Twilight 1:48 AM PDT 12:43 AM PDT
Moon 10:13 PM PDT (6/24) 6:56 AM PDT (6/24)
Length of Visible Light 17h 32m
Length of Day
16h 08m
Full, 97% of the Moon is Illuminated
Jun 24
Full
Jun 29
Last Quarter
Jul 8
New
Jul 15
First Quarter
Jul 22
Full

Hourly Weather History & Observations

Time (PDT) Temp. Dew Point Humidity Pressure Visibility Wind Dir Wind Speed Gust Speed Precip Events Conditions
12:00 AM 60.8 °F 55.4 °F 82% 29.62 in 8.0 mi WSW 3.5 mph - N/A   Overcast
12:46 AM 60.8 °F - N/A% - 8.0 mi West 2.3 mph - N/A Rain Light Rain
1:00 AM 60.8 °F 57.2 °F 88% 29.60 in 8.0 mi West 2.3 mph - N/A Rain Light Rain
1:26 AM 60.8 °F - N/A% - 5.0 mi West 2.3 mph - N/A Rain Light Rain
2:00 AM 60.8 °F 55.4 °F 82% 29.59 in 8.0 mi SW 2.3 mph - N/A   Overcast
2:10 AM 60.8 °F - N/A% - 5.0 mi Calm Calm - N/A Rain Light Rain
3:00 AM 60.8 °F 55.4 °F 82% 29.57 in 5.0 mi ENE 3.5 mph - N/A Rain Light Rain
3:45 AM 60.8 °F - N/A% - 8.0 mi NE 3.5 mph - N/A Rain Light Rain
4:00 AM 60.8 °F 55.4 °F 82% 29.57 in 5.0 mi ENE 2.3 mph - N/A Rain Light Rain
4:29 AM 60.8 °F - N/A% - 5.0 mi SE 2.3 mph - N/A Rain Light Rain
5:00 AM 60 °F 55 °F 78% 29.56 in 1 mi Calm Calm - - Rain Light Drizzle
5:00 AM 59.0 °F 55.4 °F 88% 29.56 in 1.2 mi Calm Calm - N/A   Light Drizzle
5:29 AM 59.0 °F - N/A% - 1.2 mi Calm Calm - N/A   Overcast
6:00 AM 59.0 °F 57.2 °F 94% 29.56 in 1.2 mi Calm Calm - N/A   Overcast
6:20 AM 59.0 °F - N/A% - 0.5 mi ESE 8.1 mph - N/A Fog Light Drizzle
6:44 AM 57.2 °F - N/A% - 1.0 mi SE 9.2 mph - N/A   Light Drizzle
7:00 AM 57.2 °F 55.4 °F 94% 29.57 in 1.0 mi SE 6.9 mph - N/A   Overcast
7:13 AM 57.2 °F - N/A% - 1.0 mi SE 5.8 mph - N/A Rain Light Rain
7:36 AM 60.8 °F - N/A% - 8.0 mi WSW 9.2 mph - N/A Rain Light Rain
7:49 AM 60.8 °F - N/A% - 8.0 mi WSW 9.2 mph - N/A   Overcast
8:00 AM 60.8 °F 50.0 °F 68% 29.57 in 10.0 mi WNW 8.1 mph - N/A   Overcast
8:17 AM 60.8 °F - N/A% - 12.0 mi West 13.8 mph - N/A Rain Light Rain
9:00 AM 59.0 °F 50.0 °F 72% 29.59 in 20.0 mi WNW 10.4 mph - N/A Rain Light Rain
10:00 AM 60.8 °F 50.0 °F 68% 29.59 in 20.0 mi West 13.8 mph - N/A   Overcast
10:18 AM 60.8 °F - N/A% - 20.0 mi West 10.4 mph - N/A Rain Light Rain
11:00 AM 61 °F 49 °F 55% 29.62 in 19 mi WNW 4.6 mph - - Rain Light Rain
11:00 AM 60.8 °F 48.2 °F 63% 29.62 in 20.0 mi NW 5.8 mph - N/A Rain Light Rain
12:00 PM 57.2 °F 50.0 °F 77% 29.65 in 20.0 mi SE 12.7 mph - N/A Rain Light Rain
12:31 PM 57.2 °F - N/A% - 20.0 mi SE 11.5 mph - N/A   Overcast
1:00 PM 59.0 °F 50.0 °F 72% 29.66 in 20.0 mi SE 11.5 mph - N/A   Overcast
2:00 PM 60.8 °F 50.0 °F 68% 29.67 in 20.0 mi SE 11.5 mph - N/A   Overcast
3:00 PM 60.8 °F 51.8 °F 72% 29.68 in 20.0 mi ESE 9.2 mph - N/A   Mostly Cloudy
3:08 PM 60.8 °F - N/A% - 20.0 mi East 10.4 mph - N/A Rain Light Rain Showers
3:35 PM 59.0 °F - N/A% - 20.0 mi ESE 8.1 mph - N/A   Mostly Cloudy
4:00 PM 60.8 °F 51.8 °F 72% 29.69 in 20.0 mi ESE 8.1 mph - N/A   Mostly Cloudy
5:00 PM 60 °F 51 °F 63% 29.69 in 19 mi ESE 8.1 mph - -   Mostly Cloudy
5:00 PM 60.8 °F 50.0 °F 68% 29.69 in 20.0 mi ESE 9.2 mph - N/A   Mostly Cloudy
6:00 PM 60.8 °F 50.0 °F 68% 29.68 in 20.0 mi East 8.1 mph - N/A   Overcast
7:00 PM 59.0 °F 50.0 °F 72% 29.69 in 20.0 mi East 3.5 mph - N/A   Overcast
8:00 PM 59.0 °F 51.8 °F 77% 29.69 in 20.0 mi East 3.5 mph - N/A   Overcast
9:00 PM 59.0 °F 50.0 °F 72% 29.68 in 20.0 mi East 3.5 mph - N/A   Overcast
10:00 PM 57.2 °F 50.0 °F 77% 29.69 in 30.0 mi East 4.6 mph - N/A   Overcast
11:00 PM 55 °F 49 °F 72% 29.68 in 28 mi East 2.3 mph - -   Scattered Clouds
11:00 PM 55.4 °F 48.2 °F 77% 29.68 in 30.0 mi Calm Calm - N/A   Mostly Cloudy